Des Lacs, ND

4:54 AM CDT on May 05, 2015 (GMT -0500)
Edgeview Estates | | Change Station
CLOSE
Current Station
Personal Weather Station
Location: Minot, ND
Elevation: 1752 ft
Nearby Weather Stations

Elev 1752 ft 48.21 °N, 101.33 °W | Updated 18 seconds ago

Overcast
Overcast
54.5 °F
Feels Like 54.5 °F
N
8.0
Wind Variable Wind from NNW
Gusts 14.0 mph

Today
High -- | Low -- °F
--% Chance of Precip.
Yesterday
High -- | Low -- °F
Precip. -- in
6:21 AM 9:05 PM
Full, 98% visible
Pressure 30.05 in
Visibility 10.0 miles
Clouds Overcast 9000 ft
Dew Point 29 °F
Humidity 38%
Rainfall 0.00 in
Snow Depth Not available.
UV 0 out of 12
Pollen 10.10 out of 12
Air Quality Not available.
Flu Activity Regional
METAR KMOT 050854Z AUTO 14007KT 10SM OVC090 13/M02 A3005

More Conditions Fewer Conditions

Pressure 30.05 in
Visibility 10.0 miles
Clouds Overcast 9000 ft
Dew Point 29 °F
Humidity 38%
Rainfall 0.00 in
Snow Depth Not available.
UV 0 out of 12
Pollen 10.10 out of 12
Air Quality Not available.
Flu Activity Regional
METAR KMOT 050854Z AUTO 14007KT 10SM OVC090 13/M02 A3005

More Conditions Fewer Conditions

Nepal has a long way to go to dig out and rebuild from a devastating earthquake. We have teamed up with several charities and organizations to make contributing to the relief effort as easy as possible.
How you can help: Portlight Strategies | Red Cross

10-Day Weather Forecast

Almanac

Astronomy

May. 05, 2015 Rise Set
Actual Time
Civil Twilight
Nautical Twilight
Astronomical Twilight
Moon
Length of Visible Light
Length of Day
Tomorrow will be .
, % of the Moon is Illuminated

Today's Extremes

State Highs State Lows

Community

WunderPhotos

Upload Photos

1,818,825 photos uploaded!

WunderBlogs® & News

Nearby

Air Quality

  Air Quality AQ Index Pollutant
Not available.

Snow Depth

Station Depth Elevation

Earthquake Activity

City Distance Mag. Time & Date
Minimum magnitude displayed is 2.5.

Coastal Water Temperatures

Place Temperature

Stations

Nearby Weather Stations

Station Location Temp. Windchill Dew Point Humidity Wind Precip. Elev Updated Type